CW4591 Weather Reports


time (UTC)temp
F
wind
direction
speed
knots
gust
knots
rain 1hr
in
rain 24hr
in
rain mn
in
humidity
%
barometer
mb
20260507194552 49 251 8.7 14.8 0.00 0.00 0.00 38 1014.0
20260507193110 48 222 6.1 13.9 0.00 0.00 0.00 38 1013.9
20260507191557 48 278 5.2 12.2 0.00 0.00 0.00 40 1014.0
20260507190047 48 187 2.6 10.4 0.00 0.00 0.00 41 1014.0
20260507184546 47 359 5.2 13.0 0.00 0.00 0.00 41 1014.1
20260507183056 47 359 4.3 11.3 0.00 0.00 0.00 45 1014.1
20260507181541 46 259 5.2 10.4 0.00 0.00 0.00 45 1014.2
20260507180038 46 190 4.3 8.7 0.00 0.00 0.00 49 1014.1
20260507174535 44 168 6.1 9.6 0.00 0.00 0.00 51 1014.3
20260507173031 43 186 2.6 8.7 0.00 0.00 0.00 58 1014.4
20260507171526 41 204 1.7 6.1 0.00 0.00 0.00 64 1014.5
20260507170024 39 359 0.9 2.6 0.00 0.00 0.00 74 1014.6
20260507164520 38 359 0.0 3.5 0.00 0.00 0.00 75 1014.6
20260507163017 37 152 1.7 3.5 0.00 0.00 0.00 76 1014.7
20260507161518 36 120 0.0 3.5 0.00 0.00 0.00 80 1014.8
20260507160012 35 135 0.0 2.6 0.00 0.00 0.00 84 1014.7
20260507154507 34 135 0.9 3.5 0.00 0.00 0.00 86 1014.6
20260507153015 32 135 0.0 3.5 0.00 0.00 0.00 88 1014.6
20260507151506 31 299 0.9 2.6 0.00 0.00 0.00 88 1014.6
20260507150003 30 300 0.0 1.7 0.00 0.00 0.00 89 1014.5
20260507144503 30 359 0.0 1.7 0.00 0.00 0.00 89 1014.5
20260507143001 30 299 0.0 0.0 0.00 0.00 0.00 89 1014.5
20260507140111 29 299 0.0 1.7 0.00 0.00 0.00 90 1014.5
20260507134608 28 359 0.0 0.0 0.00 0.00 0.00 90 1014.6
20260507133101 28 359 0.0 0.0 0.00 0.00 0.00 90 1014.6
20260507131557 28 299 0.0 0.0 0.00 0.00 0.00 89 1014.5
20260507130054 28 299 0.0 0.0 0.00 0.00 0.00 89 1014.5
20260507124554 28 299 0.0 0.0 0.00 0.00 0.00 89 1014.5
20260507123053 28 299 0.0 0.0 0.00 0.00 0.00 88 1014.4
20260507121550 28 299 0.0 0.0 0.00 0.00 0.00 88 1014.4
20260507120050 28 298 0.0 0.0 0.00 0.00 0.00 88 1014.4
20260507114555 29 359 0.0 0.0 0.00 0.00 0.00 88 1014.3
20260507113050 28 299 0.0 0.0 0.00 0.00 0.00 88 1014.2
20260507111556 28 299 0.0 0.0 0.00 0.00 0.00 87 1014.1
20260507110044 28 299 0.0 0.0 0.00 0.00 0.00 87 1014.1
20260507104543 28 359 0.0 0.0 0.00 0.00 0.00 87 1014.0
20260507103041 28 299 0.0 0.0 0.00 0.00 0.00 86 1013.9
20260507101542 28 359 0.0 0.0 0.00 0.00 0.00 86 1013.7
20260507100037 29 299 0.0 1.7 0.00 0.00 0.00 85 1013.5
20260507094539 29 359 0.0 0.0 0.00 0.00 0.00 84 1013.5
20260507093041 30 299 0.0 1.7 0.00 0.00 0.00 83 1013.3
20260507091532 30 299 0.0 0.0 0.00 0.00 0.00 83 1013.1
20260507090026 31 299 0.0 0.0 0.00 0.00 0.00 81 1013.0
20260507084523 31 359 0.0 0.0 0.00 0.00 0.00 80 1012.8
20260507083027 32 299 0.0 0.0 0.00 0.00 0.00 80 1012.8
20260507081529 33 299 0.0 1.7 0.00 0.00 0.00 78 1012.7
20260507080019 34 299 0.0 2.6 0.00 0.00 0.00 78 1012.5
20260507074511 34 299 0.9 2.6 0.00 0.00 0.00 77 1012.3
20260507073010 35 299 0.0 1.7 0.00 0.00 0.00 76 1012.1
20260507071508 36 299 0.9 1.7 0.00 0.00 0.00 75 1012.1
20260507070010 36 299 0.0 2.6 0.00 0.00 0.00 74 1011.9
20260507064505 37 299 0.0 0.0 0.00 0.00 0.00 73 1011.7
20260507063004 37 299 0.0 1.7 0.00 0.00 0.00 72 1011.6
20260507061503 38 299 0.9 3.5 0.00 0.00 0.00 70 1011.4
20260507060101 38 297 0.9 3.5 0.00 0.00 0.00 70 1011.3
20260507060003 38 359 0.9 3.5 0.00 0.00 0.00 70 1011.3
20260507054609 39 324 0.9 3.5 0.00 0.00 0.00 69 1011.2
20260507053058 39 279 2.6 4.3 0.00 0.00 0.00 69 1011.0
20260507051556 40 272 0.9 5.2 0.00 0.00 0.00 68 1010.8
20260507050053 40 292 0.9 2.6 0.00 0.00 0.00 67 1010.5
20260507044552 41 293 0.0 2.6 0.00 0.00 0.00 67 1010.4
20260507043058 41 359 1.7 6.1 0.00 0.00 0.00 66 1010.3
20260507041600 42 247 2.6 5.2 0.00 0.00 0.00 65 1010.2
20260507040054 42 332 2.6 7.8 0.00 0.00 0.00 64 1010.1
20260507034549 42 324 3.5 6.1 0.00 0.00 0.00 63 1009.9
20260507033046 43 328 3.5 10.4 0.00 0.00 0.00 61 1009.7
20260507031543 45 332 4.3 7.8 0.00 0.00 0.00 59 1009.4
20260507030042 46 44 4.3 7.8 0.00 0.00 0.00 58 1009.2
20260507024540 47 359 5.2 10.4 0.00 0.00 0.00 56 1009.1
20260507023038 47 314 0.9 7.0 0.00 0.00 0.00 53 1008.9
20260507021537 48 318 2.6 7.0 0.00 0.00 0.00 48 1008.8
20260507020035 49 284 2.6 7.8 0.00 0.00 0.00 44 1008.7
20260507014548 49 239 3.5 9.6 0.00 0.00 0.00 39 1008.6
20260507013043 49 246 4.3 9.6 0.00 0.00 0.00 39 1008.6
20260507011538 50 288 6.1 12.2 0.00 0.00 0.00 37 1008.5
20260507010034 49 272 1.7 10.4 0.00 0.00 0.00 40 1008.5
20260507004531 49 267 3.5 14.8 0.00 0.00 0.00 40 1008.3
20260507003030 49 254 8.7 16.5 0.00 0.00 0.00 39 1008.2
20260507001528 49 221 2.6 12.2 0.00 0.00 0.00 40 1008.2
20260507000031 49 270 6.1 12.2 0.00 0.00 0.00 39 1008.1
20260506234529 50 273 4.3 13.0 0.00 0.00 0.00 37 1008.1
20260506233029 51 359 6.1 12.2 0.00 0.00 0.00 37 1008.0
20260506231526 51 237 2.6 8.7 0.00 0.00 0.00 37 1008.1
20260506230024 50 283 4.3 13.0 0.00 0.00 0.00 38 1008.1
20260506224523 50 245 3.5 10.4 0.00 0.00 0.00 40 1008.2
20260506223021 50 278 3.5 7.8 0.00 0.00 0.00 42 1008.1
20260506221518 49 287 2.6 7.8 0.00 0.00 0.00 42 1008.2
20260506220018 49 249 4.3 8.7 0.00 0.00 0.00 42 1008.2
20260506214518 48 317 1.7 7.0 0.00 0.00 0.00 43 1008.1
20260506213016 48 265 6.1 10.4 0.00 0.00 0.00 45 1008.1
20260506211515 49 187 6.1 10.4 0.00 0.00 0.00 46 1008.1
20260506210015 48 181 2.6 7.8 0.00 0.00 0.00 47 1008.0
20260506204512 48 153 3.5 8.7 0.00 0.00 0.00 48 1008.0
20260506203011 48 207 3.5 8.7 0.00 0.00 0.00 49 1008.0
20260506201510 48 213 4.3 8.7 0.00 0.00 0.00 47 1008.0
20260506200009 48 108 6.1 10.4 0.00 0.00 0.00 49 1007.9